Location: *
(28.3744°N, 81.5492°W)
Time: 03:22:18
(UTC+00:00)

Helios 1A - Pass Details

Date: 15 June 2025
Orbit: 546 x 567 km, 98.2° (Epoch: 08 July)

Event Time Altitude Azimuth Distance (km) Brightness Sun altitude
Rises 02:17:21 0° 4° (N) 2,740 7.0 -21.1°
Reaches altitude 10° 02:19:33 10° 357° (N) 1,838 6.1 -21.4°
Maximum altitude 02:23:20 44° 285° (WNW) 768 3.9 -22.0°
Enters shadow 02:25:54 18° 220° (SW) 1,365 4.7 -22.4°
